Weather in Tompo

Russia / Sakha (Yakutia) Republic     63°54′52″N   135°51′07″E
temp.,
°C
wind,
m/s
gust,
m/s
humid.,
%
clouds,
%
prec.,
mm/h
press.,
hPa
HPBL,
m
6 march, sat
sat601:00−36n228336 0.0 102919
04:00−36n128661 0.0 102819
07:00−34nnw1283100 0.0 102819
10:00−31nne1283100 0.0 102771
13:00−28n1281100 0.0 1025294
16:00−27nne128297 0.0 1024322
19:00−33n229165 0.0 102519
22:00−35nnw119261 0.0 102519
7 march, sun
sun701:00−37nnw019360 0.0 102419
04:00−37ne009575 0.0 102319
07:00−38s009839 0.0 102319
10:00−34s119135 0.0 102228
13:00−31se118636 0.0 1019207
16:00−29se118637 0.0 1018228
19:00−35sse119927 0.0 101919
22:00−38se1110042 0.0 101819
8 march, mon
mon801:00−40se0010050 0.0 101719
04:00−40ene0110049 0.0 101619
07:00−40nne1110074 0.0 101519
10:00−35nne119450 0.0 101331
13:00−32ne118645 0.0 1010176
16:00−30nne008944 0.0 1008146
19:00−35n1110021 0.0 100919
22:00−35nnw1110018 0.0 101019
9 march, tue
tue901:00−36n1110031 0.0 100919
04:00−35n1110032 0.0 100919
07:00−35n0110024 0.0 101019
10:00−29nw009347 0.0 101029
13:00−26ese118748 0.0 1010142
16:00−23e119133 0.0 1011128
19:00−28sse1110056 0.0 101320
22:00−29s129972 0.0 101520
10 march, wed
wed1001:00−30ssw1110097 0.0 101620
04:00−29ssw129998 0.1 101621
07:00−29sw1199100 0.1 101720
10:00−26sw1195100 0.1 101676
13:00−22ssw2389100 0.1 1014348
16:00−19s3486100 0.1 1013461
19:00−21sse2297100 0.0 101320
22:00−21sse1299100 0.1 101320